SCP
1 1 1 1 1 1 1 1 1 1 1 1 1 1 1 1 1 1 1 1 1 1 1 1 1 1 1 1 1 1 1 1 1 1 1 0 0 0 0 0 0 0 0
1 1 1 1 1 1 1 1 1 1 0 0 0 0 0 1 1 1 1 1 1 1 1 1 1 1 1 1 1 1 1 1 1 1 1 1 1 0 0 0 0 0 0
1 1 1 1 1 1 1 1 1 1 0 0 0 0 0 0 1 1 1 1 1 1 1 1 1 1 1 1 1 1 1 1 1 1 1 1 1 1 1 1 1 1 0
1 1 1 1 1 1 1 1 1 1 0 0 0 0 0 0 0 1 1 1 1 1 1 1 1 1 1 1 1 1 1 1 1 1 1 1 1 1 1 1 1 1 1
1 1 1 1 1 1 1 1 1 1 0 0 0 0 0 0 0 0 1 1 1 1 1 1 1 1 1 1 1 1 1 1 1 1 1 1 1 1 1 1 1 1 1
1 1 1 1 1 1 1 1 1 1 0 0 0 0 0 0 0 0 0 1 1 1 1 1 1 1 1 1 1 1 1 1 1 1 1 1 1 1 1 1 1 1 1
1 1 1 1 2 2 1 1 1 1 1 1 0 0 0 0 0 0 0 0 0 1 1 1 1 1 1 1 1 1 1 1 1 1 1 1 1 1 1 1 1 1 1
0 0 1 1 2 2 2 1 1 1 1 0 0 0 0 0 0 0 0 0 0 0 1 1 1 1 1 1 1 1 1 1 1 1 1 1 1 1 1 1 1 1 1
0 0 0 1 1 2 1 1 1 1 0 0 0 0 0 0 0 0 0 0 0 0 1 0 0 1 1 1 1 1 1 1 1 1 1 1 1 1 1 1 1 1 1
0 0 0 0 1 1 1 0 0 0 0 0 0 0 0 0 0 0 0 0 0 0 0 0 0 0 1 1 1 1 1 1 1 2 2 1 1 1 1 1 1 1 1
0 0 0 0 0 0 0 0 0 0 0 0 0 0 0 0 0 0 0 0 0 0 0 0 0 0 0 1 1 1 1 1 1 1 1 2 1 1 1 1 1 1 1
0 0 0 0 0 0 0 0 0 0 0 0 0 0 0 0 0 0 0 0 0 0 0 0 0 0 0 0 1 1 1 1 1 1 1 1 1 1 1 1 1 1 1
0 0 0 0 0 0 0 0 0 0 0 0 0 0 0 0 0 0 0 0 0 0 0 0 0 0 0 0 0 0 0 0 0 0 1 1 1 1 1 1 1 1 1
0 0 0 0 0 0 0 0 0 0 0 0 0 0 0 0 0 0 0 0 0 0 0 0 0 0 0 0 0 0 0 0 0 0 0 0 1 1 1 1 1 1 1
0 0 0 0 0 0 0 0 0 0 0 0 0 0 0 0 0 0 0 0 0 0 0 0 0 0 0 0 0 0 0 0 0 0 0 0 0 0 1 1 1 1 1
0 0 0 0 0 0 0 0 0 0 0 0 0 0 0 0 0 0 0 0 0 0 0 0 0 0 0 0 0 0 0 0 0 0 0 0 0 0 1 1 1 1 1
0 0 0 0 0 0 0 0 0 0 0 0 0 0 0 0 0 0 0 0 0 0 0 0 0 0 0 0 0 0 0 0 0 0 0 0 0 0 0 1 1 1 1
1 1 1 0 0 0 1 1 1 1 1 0 0 0 0 0 0 0 0 0 0 0 0 0 0 0 0 0 0 0 0 0 0 0 0 0 0 0 0 0 0 0 0
1 1 1 1 1 1 1 1 1 1 1 1 0 0 0 0 0 0 0 0 0 0 0 0 0 0 0 0 0 0 0 0 0 0 0 0 0 0 0 0 0 0 0
1 1 1 1 1 1 1 1 2 2 1 1 0 0 0 0 0 0 0 0 0 0 0 0 0 0 0 0 0 0 0 0 0 0 0 0 0 0 0 0 0 0 0
1 1 1 1 1 1 1 1 1 2 1 1 1 1 0 0 0 0 0 0 0 0 0 0 0 0 0 0 0 0 0 0 0 0 0 1 1 1 1 0 0 0 0
1 1 1 1 1 1 0 0 1 1 1 1 1 1 1 0 0 0 0 0 0 0 0 0 0 0 0 0 0 0 0 0 0 0 1 1 1 1 1 1 0 0 0
1 1 1 1 1 0 0 0 0 0 0 1 1 1 1 0 0 0 0 0 0 0 0 0 0 0 0 0 0 0 0 0 0 0 0 0 1 1 1 1 0 0 0
2 2 2 1 1 1 0 0 0 0 0 0 1 1 1 1 0 0 0 0 0 0 0 0 0 0 0 0 0 0 0 0 0 0 0 0 0 1 1 1 0 0 0
2 2 2 2 2 1 1 0 0 0 0 0 0 0 0 0 0 0 0 0 0 0 0 0 0 0 0 0 0 0 0 0 0 0 0 0 0 0 0 0 0 0 0
2 2 2 2 2 2 1 0 0 0 0 0 0 0 0 0 0 0 0 0 1 1 1 0 0 0 0 0 0 0 0 0 0 0 0 0 0 0 0 0 0 0 0
Wind_Speed
2 2 1 1 1 1 1 1 1 0 1 2 3 3 3 3 4 4 1 6 5 6 8 10 11 12 13 13 13 13 12 12 11 11 10 10 10 10 10 10 9 9 9
2 2 2 1 1 1 1 0 0 1 1 1 2 2 4 4 3 4 5 4 8 6 7 8 10 12 12 13 14 14 13 13 12 12 11 11 10 11 11 11 10 10 9
3 2 2 2 2 2 2 1 1 1 1 2 2 3 3 3 3 4 5 4 4 8 8 7 9 10 11 13 14 14 14 13 13 13 12 12 11 11 11 11 11 10 10
3 2 2 2 2 1 1 1 0 1 1 2 2 2 2 2 4 4 5 4 4 4 7 7 6 8 10 12 14 15 15 14 14 14 14 14 13 12 12 12 12 11 11
4 3 2 3 2 1 1 0 2 2 2 2 3 2 3 3 3 3 4 4 4 4 4 6 7 7 9 12 13 14 14 14 14 15 16 16 15 14 13 13 13 12 12
5 3 4 3 2 1 1 2 1 1 2 3 4 2 3 2 2 2 4 3 3 4 4 4 4 6 9 10 11 12 14 14 15 15 16 16 17 16 15 14 14 14 14
5 2 3 3 1 2 1 0 1 1 1 3 4 3 2 2 1 1 1 2 1 2 2 2 3 2 4 9 9 10 13 15 15 15 15 15 16 16 17 17 16 15 15
4 4 2 3 2 2 1 0 1 3 2 2 4 5 3 3 4 1 1 0 1 1 1 1 1 2 3 3 4 8 10 13 15 16 16 16 16 17 18 19 18 17 17
4 2 3 1 1 2 1 0 1 2 3 2 2 4 4 3 2 2 1 0 1 2 2 2 2 2 3 3 3 4 5 8 11 14 15 15 15 16 18 19 19 19 18
4 3 3 2 2 1 1 2 1 2 3 3 0 1 3 5 5 2 2 2 1 2 3 3 3 2 2 3 1 1 2 4 6 9 12 13 14 16 17 18 20 20 20
4 3 3 3 2 1 1 1 1 3 3 3 3 2 2 2 5 6 5 4 3 3 2 3 3 3 2 3 3 3 3 3 4 6 8 10 12 14 16 18 19 20 20
4 4 4 3 2 1 1 1 1 1 2 3 4 3 3 4 4 4 5 5 5 3 3 4 4 3 3 3 2 6 4 4 4 5 6 8 9 11 14 16 19 20 21
4 5 3 3 2 2 1 1 1 1 1 2 3 3 3 4 4 5 6 6 6 5 3 4 3 3 4 3 1 4 3 3 4 6 6 7 8 9 11 13 16 18 19
4 5 4 4 3 3 2 2 2 2 1 2 3 3 4 4 4 4 5 6 7 6 4 3 3 4 3 5 3 5 6 2 3 5 7 7 8 8 9 11 13 15 16
4 6 5 4 4 3 3 3 2 2 2 4 4 4 4 3 4 4 5 5 7 8 6 3 3 3 4 5 4 7 8 3 5 7 7 7 8 8 8 9 10 12 13
4 5 5 5 4 4 4 4 4 3 3 4 3 3 4 4 3 4 5 5 6 7 8 6 5 6 6 8 5 7 9 6 10 10 9 8 8 9 9 10 11 11 12
6 6 6 5 5 5 5 5 5 4 5 5 5 5 5 5 5 5 5 5 6 6 8 8 7 6 6 9 8 8 9 9 8 8 7 8 9 9 10 10 11 11 12
7 7 6 6 6 6 6 6 6 5 6 6 6 5 6 5 5 7 5 6 6 6 9 10 9 8 8 8 8 9 9 8 8 5 7 8 9 10 10 10 11 11 12
7 7 7 7 7 6 6 6 6 6 6 6 6 6 7 6 7 6 6 7 7 7 7 9 10 7 8 7 8 9 10 8 10 8 9 12 12 11 11 11 12 12 12
8 8 8 8 7 7 7 7 7 7 7 7 7 7 8 8 8 7 7 8 8 8 8 9 9 8 7 7 7 8 8 7 8 8 8 8 9 12 13 14 14 13 13
9 8 8 8 8 7 7 7 7 7 7 8 8 8 8 7 6 7 8 7 8 8 9 8 9 8 8 6 7 7 8 8 8 8 8 8 8 9 10 14 16 15 13
9 9 9 9 9 7 5 4 7 8 8 8 8 8 8 9 11 13 13 12 11 11 11 10 10 9 9 9 8 8 9 9 9 6 7 9 8 9 9 10 8 10 12
10 10 10 9 9 7 8 9 9 9 10 9 9 9 9 7 7 10 12 16 16 17 16 13 13 13 12 11 10 11 10 11 11 9 9 11 10 10 10 9 8 9 11
9 9 10 10 9 8 11 11 10 11 11 11 11 10 10 10 10 9 10 11 11 12 13 14 13 13 13 11 10 11 12 12 13 11 11 12 11 10 10 9 9 12 13
9 9 9 10 10 9 11 12 11 10 10 12 12 12 11 12 9 8 11 12 13 12 12 14 14 14 13 12 11 11 12 12 12 10 8 10 11 10 10 10 9 13 14
9 9 9 9 10 10 9 13 12 10 10 10 10 11 12 14 10 9 11 12 13 12 12 10 11 14 15 16 16 14 13 12 12 12 9 8 10 9 10 9 8 7 10
Wind_Direction
159 136 114 90 106 123 162 202 248 250 268 271 285 289 291 284 285 284 196 164 203 226 227 223 216 213 212 209 207 205 204 201 196 194 195 194 189 187 186 184 180 177 175
137 137 146 134 126 114 67 52 249 239 267 287 279 285 284 290 277 279 278 197 192 210 225 228 225 220 219 216 214 211 210 209 203 199 200 200 198 194 193 193 190 186 184
136 149 136 146 104 111 127 133 128 240 244 252 270 275 269 282 286 274 271 272 224 198 206 222 227 221 221 223 222 219 215 212 209 205 205 204 203 200 199 199 198 194 192
142 161 144 113 107 130 129 130 160 299 320 291 285 288 281 261 266 266 259 253 267 255 200 195 220 224 221 224 224 223 221 217 214 210 210 208 207 206 204 204 203 199 197
147 160 123 104 144 126 113 25 64 326 334 320 287 260 284 281 271 267 281 270 254 260 261 182 199 219 227 229 228 225 223 222 220 218 216 215 212 209 208 208 206 204 202
147 148 136 130 157 128 98 61 49 350 316 312 303 311 282 288 278 281 275 264 257 254 258 266 225 208 213 226 231 232 231 228 226 225 224 221 219 213 211 211 209 208 206
145 162 137 136 176 102 72 8 310 262 298 327 294 278 231 214 234 240 287 302 279 273 269 259 259 270 215 205 220 233 235 234 230 227 226 225 225 219 214 214 213 211 210
158 165 145 169 141 135 139 81 335 315 336 340 315 302 274 197 183 162 229 233 340 305 276 262 263 250 274 252 187 216 234 238 233 228 226 226 226 224 220 217 214 214 213
157 140 163 184 178 233 137 195 294 316 322 318 341 319 310 331 327 171 148 206 328 324 308 318 278 284 266 259 245 202 236 247 243 236 230 226 227 226 224 221 218 215 214
154 156 171 175 203 220 147 234 79 303 296 302 289 303 322 341 307 299 217 189 239 283 313 308 309 288 276 271 227 38 315 280 259 249 240 236 233 228 226 225 223 220 217
159 162 163 165 181 201 107 358 355 301 297 308 318 311 299 260 264 287 296 301 279 278 302 293 294 289 295 286 279 39 8 324 295 273 257 248 242 233 228 229 231 229 225
164 157 159 160 184 150 143 210 272 240 323 339 315 307 300 298 299 297 291 286 293 298 307 305 282 277 276 276 318 34 347 322 311 300 279 263 253 243 236 233 233 232 232
169 158 164 171 170 156 183 219 231 301 276 285 283 296 305 301 307 300 296 300 300 291 272 259 268 290 283 286 302 11 285 291 300 297 289 279 268 256 247 241 238 235 234
164 152 173 178 181 191 201 200 239 217 230 261 278 301 290 285 295 292 297 303 298 293 276 276 299 281 311 301 7 310 280 230 287 292 288 283 276 269 258 250 244 239 236
166 170 181 185 188 194 208 224 241 240 237 254 256 237 261 281 273 284 287 289 296 299 300 301 283 302 296 298 317 296 296 302 289 281 278 279 276 271 263 256 249 243 240
175 181 191 194 197 202 209 231 234 210 241 247 263 286 280 278 283 276 277 279 280 288 293 302 299 298 317 307 289 291 287 276 255 252 257 264 269 270 265 260 254 248 243
186 194 198 204 208 213 217 226 250 231 241 248 249 248 255 278 283 285 275 274 275 279 285 290 293 293 288 286 296 293 285 279 267 223 235 256 263 265 264 261 258 253 248
198 201 205 211 217 219 222 230 240 240 243 248 252 257 260 256 256 270 279 278 279 281 279 288 292 289 284 282 280 282 282 278 282 243 225 244 254 258 259 259 258 253 249
204 206 211 219 223 225 226 231 239 245 248 251 255 257 259 260 261 268 272 276 279 275 276 281 284 287 282 279 285 277 276 274 276 260 227 228 236 244 251 254 253 251 248
206 209 214 222 227 229 230 232 235 241 248 252 253 255 257 258 258 264 264 263 270 279 275 272 278 282 278 276 274 277 278 269 274 282 278 266 242 233 240 243 245 245 244
211 211 217 221 226 230 232 234 240 241 245 252 252 251 252 254 275 269 277 283 280 275 278 278 279 282 284 291 286 289 288 288 277 272 273 271 262 255 242 232 232 235 237
215 215 220 225 228 232 156 189 252 259 253 253 256 256 255 230 229 227 241 256 268 271 277 284 284 286 289 288 289 288 288 285 285 281 281 279 277 273 267 261 239 219 229
212 218 224 228 233 223 178 199 222 255 259 257 258 259 262 262 239 248 231 224 237 240 246 263 276 280 286 287 291 286 282 286 289 295 289 280 276 272 268 264 227 222 234
216 219 225 230 234 225 189 204 213 238 254 255 254 254 258 265 261 259 266 262 259 248 235 236 253 265 271 282 282 279 281 277 270 261 258 268 272 271 271 269 234 217 228
221 224 226 230 235 231 197 202 213 243 246 250 253 253 255 259 248 225 253 263 265 265 250 232 241 256 268 271 269 273 271 271 272 271 257 261 270 274 272 267 252 217 221
227 232 231 233 236 240 207 198 207 245 252 256 252 250 240 240 247 213 244 258 264 268 275 267 241 242 249 248 234 240 257 265 271 275 269 261 269 275 277 267 260 245 229